Location: Clairmont
(55.2667°N, 118.8000°W)
Time: 09:42:27
(UTC+00:00)

N. Korean satellite - Pass Details

Date: 05 November 2020
Orbit: 453 x 503 km, 97.2° (Epoch: 03 December)

Event Time Altitude Azimuth Distance (km) Brightness Sun altitude
Rises 13:57:31 0° 11° (NNE) 2,483 10.2 -10.4°
Reaches altitude 10° 13:59:34 10° 9° (N) 1,605 9.2 -10.1°
Maximum altitude 14:02:58 64° 288° (WNW) 512 6.4 -9.7°
Drops below altitude 10° 14:06:22 10° 206° (SSW) 1,600 9.1 -9.2°
Sets 14:08:25 0° 203° (SSW) 2,475 10.1 -8.9°
